Lancaster, PA

8:23 PM EST on February 24, 2017 (GMT -0500)
Lancaster

Weather History for KLNS - January, 2013

Change the Weather History Date:

Wednesday, January 9, 2013

  Actual Average Record
Temperature  
Mean Temperature 32 °F -  
Max Temperature 44 °F 36 °F 62 °F (1998)
Min Temperature 21 °F 21 °F -4 °F (1981)
Degree Days  
Heating Degree Days 32    
Moisture  
Dew Point 28 °F    
Average Humidity 85    
Maximum Humidity 93    
Minimum Humidity 68    
Precipitation  
Precipitation 0.01 in - - ()
Sea Level Pressure  
Sea Level Pressure 30.32 in    
Wind  
Wind Speed 1 mph (WSW)    
Max Wind Speed 7 mph    
Max Gust Speed -    
Visibility 3 miles    
Events Rain    
Averages and records for this station are not official NWS values.
T = Trace of Precipitation, MM = Missing Value Source: NWS Daily Summary

Daily Weather History Graph

Daily Weather History Graph

Search for Another Location

Airport or City:

Trip Planner

Search our weather history database for the weather conditions in past years. The results will help you decide how hot, cold, wet, or windy it might be!

Date:

Astronomy

Jan. 09, 2013 Rise Set
Actual Time 7:27 AM EST 4:58 PM EST
Civil Twilight 6:57 AM EST 5:28 PM EST
Nautical Twilight 6:23 AM EST 6:01 PM EST
Astronomical Twilight 5:50 AM EST 6:34 PM EST
Moon 5:04 AM EST (1/9) 2:57 PM EST (1/9)
Length of Visible Light 10h 31m
Length of Day
9h 30m
Waning Crescent, 6% of the Moon is Illuminated
Jan 9
Waning Crescent
Jan 11
New
Jan 18
First Quarter
Jan 26
Full
Feb 3
Last Quarter

Hourly Weather History & Observations

Time (EST) Temp. Windchill Dew Point Humidity Pressure Visibility Wind Dir Wind Speed Gust Speed Precip Events Conditions
12:29 AM 28.4 °F - 24.8 °F 86% 30.37 in 2.5 mi Calm Calm - N/A   Clear
12:53 AM 28.0 °F - 25.0 °F 88% 30.38 in 2.5 mi Calm Calm - N/A   Clear
1:02 AM 28.4 °F - 24.8 °F 86% 30.37 in 3.0 mi Calm Calm - N/A   Clear
1:19 AM 28.4 °F - 24.8 °F 86% 30.37 in 2.5 mi Calm Calm - N/A   Clear
1:53 AM 26.1 °F - 24.1 °F 92% 30.38 in 2.0 mi Calm Calm - N/A   Clear
2:19 AM 26.6 °F - 21.2 °F 80% 30.36 in 3.0 mi Calm Calm - N/A   Clear
2:28 AM 26.6 °F - 23.0 °F 86% 30.37 in 2.5 mi Calm Calm - N/A   Clear
2:38 AM 26.6 °F - 21.2 °F 80% 30.36 in 3.0 mi Calm Calm - N/A   Clear
2:48 AM 26.6 °F - 23.0 °F 86% 30.36 in 2.5 mi Calm Calm - N/A   Clear
2:53 AM 24.1 °F - 21.9 °F 91% 30.37 in 3.0 mi Calm Calm - N/A   Clear
3:07 AM 24.8 °F - 21.2 °F 86% 30.36 in 2.5 mi Calm Calm - N/A   Clear
3:53 AM 26.1 °F - 23.0 °F 88% 30.36 in 2.5 mi Calm Calm - N/A   Clear
4:53 AM 21.0 °F - 19.0 °F 92% 30.36 in 3.0 mi Calm Calm - N/A   Clear
5:04 AM 24.8 °F - 21.2 °F 86% 30.35 in 2.5 mi Calm Calm - N/A   Clear
5:53 AM 24.1 °F - 21.0 °F 88% 30.35 in 2.5 mi Calm Calm - N/A   Clear
6:53 AM 24.1 °F - 21.0 °F 88% 30.36 in 2.5 mi Calm Calm - N/A   Clear
7:53 AM 25.0 °F - 21.0 °F 85% 30.37 in 1.5 mi Calm Calm - N/A   Clear
8:53 AM 27.0 °F 23.0 °F 25.0 °F 92% 30.37 in 1.5 mi SE 3.5 mph - N/A   Clear
9:53 AM 32.0 °F - 28.0 °F 85% 30.36 in 1.5 mi Calm Calm - N/A   Clear
10:15 AM 35.6 °F - 30.2 °F 81% 30.34 in 2.0 mi Calm Calm - N/A   Haze
10:43 AM 39.2 °F - 33.8 °F 81% 30.33 in 3.0 mi Calm Calm - N/A   Haze
10:53 AM 39.9 °F - 33.1 °F 77% 30.34 in 3.0 mi Calm Calm - N/A   Haze
11:53 AM 43.0 °F 40.3 °F 33.1 °F 68% 30.31 in 5.0 mi WSW 4.6 mph - N/A   Haze
12:53 PM 41.0 °F 37.1 °F 34.0 °F 76% 30.31 in 3.0 mi West 5.8 mph - 0.00 in Rain Light Rain
1:01 PM 39.2 °F 37.0 °F 33.8 °F 81% 30.28 in 2.0 mi SW 3.5 mph - 0.00 in Rain Light Rain
1:12 PM 39.2 °F 35.9 °F 33.8 °F 81% 30.27 in 3.0 mi WSW 4.6 mph - 0.01 in Rain Light Rain
1:53 PM 41.0 °F 38.0 °F 36.0 °F 82% 30.24 in 3.0 mi South 4.6 mph - 0.01 in   Haze
2:53 PM 42.1 °F - 36.0 °F 79% 30.21 in 4.0 mi Calm Calm - 0.00 in   Haze
3:53 PM 44.1 °F 40.1 °F 36.0 °F 73% 30.21 in 5.0 mi WSW 6.9 mph - N/A   Haze
4:53 PM 39.9 °F 35.1 °F 34.0 °F 79% 30.23 in 3.0 mi WNW 6.9 mph - N/A   Haze
5:53 PM 37.9 °F 35.5 °F 33.1 °F 83% 30.24 in 4.0 mi West 3.5 mph - N/A   Haze
6:53 PM 34.0 °F 31.0 °F 30.9 °F 89% 30.27 in 3.0 mi West 3.5 mph - N/A   Clear
7:53 PM 35.1 °F - 30.9 °F 85% 30.28 in 4.0 mi Calm Calm - N/A   Clear
9:53 PM 32.0 °F 28.7 °F 28.9 °F 88% 30.29 in 4.0 mi WSW 3.5 mph - N/A   Clear
10:08 PM 30.2 °F - 28.4 °F 93% 30.28 in 3.0 mi Calm Calm - N/A   Clear
10:16 PM 28.4 °F - 26.6 °F 93% 30.28 in 2.0 mi Calm Calm - N/A   Clear
10:53 PM 36.0 °F 33.3 °F 30.9 °F 82% 30.31 in 4.0 mi WSW 3.5 mph - N/A   Haze
11:19 PM 30.2 °F - 28.4 °F 93% 30.31 in 2.5 mi Calm Calm - N/A   Clear
11:30 PM 33.8 °F 30.8 °F 30.2 °F 87% 30.31 in 4.0 mi West 3.5 mph - N/A   Clear
11:53 PM 30.9 °F 26.2 °F 28.0 °F 89% 30.33 in 3.0 mi West 4.6 mph - N/A   Clear